Time,TemperatureF,DewpointF,PressureIn,WindDirection,WindDirectionDegrees,WindSpeedMPH,WindSpeedGustMPH,Humidity,HourlyPrecipIn,Conditions,Clouds,dailyrainin,SolarRadiationWatts/m^2,SoftwareType,DateUTC
2013-02-26 00:00:00,22.2,18.4,30.00,ENE,76,1.0,1.0,85,0.00,,---,0.00,0.00,VWS V14.00,2013-02-26 06:00:00,
2013-02-26 00:05:00,22.2,18.4,30.00,ENE,76,0.0,0.0,85,0.00,,---,0.00,0.00,VWS V14.00,2013-02-26 06:05:00,
2013-02-26 00:10:00,22.2,18.4,30.00,ENE,76,0.0,0.0,85,0.00,,---,0.00,0.00,VWS V14.00,2013-02-26 06:10:00,
2013-02-26 00:15:00,21.9,18.1,30.00,ENE,76,0.0,0.0,85,0.00,,---,0.00,0.00,VWS V14.00,2013-02-26 06:15:00,
2013-02-26 00:20:00,21.8,18.3,30.00,ENE,68,0.0,0.0,86,0.00,,---,0.00,0.00,VWS V14.00,2013-02-26 06:20:00,
2013-02-26 00:25:00,21.8,18.3,30.00,ENE,68,0.0,0.0,86,0.00,,---,0.00,0.00,VWS V14.00,2013-02-26 06:25:00,
2013-02-26 00:30:00,21.6,18.1,30.00,ENE,68,0.0,0.0,86,0.00,,---,0.00,0.00,VWS V14.00,2013-02-26 06:30:00,
2013-02-26 00:35:00,21.6,18.1,30.00,ENE,68,1.0,1.0,86,0.00,,---,0.00,0.00,VWS V14.00,2013-02-26 06:35:00,
2013-02-26 00:40:00,21.4,17.9,30.00,ENE,73,1.0,1.0,86,0.00,,---,0.00,0.00,VWS V14.00,2013-02-26 06:40:00,
2013-02-26 00:45:00,21.4,17.9,30.00,East,92,1.0,1.0,86,0.00,,---,0.00,0.00,VWS V14.00,2013-02-26 06:45:00,
2013-02-26 00:50:00,21.4,17.9,30.00,ENE,76,0.0,1.0,86,0.00,,---,0.00,0.00,VWS V14.00,2013-02-26 06:50:00,
2013-02-26 00:55:00,21.3,17.8,30.00,ENE,78,1.0,1.0,86,0.00,,---,0.00,0.00,VWS V14.00,2013-02-26 06:55:00,
2013-02-26 01:00:00,21.4,17.9,30.00,ENE,73,0.0,0.0,86,0.00,,---,0.00,0.00,VWS V14.00,2013-02-26 07:00:00,
2013-02-26 01:05:00,21.6,18.1,30.00,ENE,73,1.0,1.0,86,0.00,,---,0.00,0.00,VWS V14.00,2013-02-26 07:05:00,
2013-02-26 01:10:00,21.6,18.1,30.00,ENE,78,1.0,1.0,86,0.00,,---,0.00,0.00,VWS V14.00,2013-02-26 07:10:00,
2013-02-26 01:15:00,21.6,18.3,30.00,ENE,72,1.0,2.0,87,0.00,,---,0.00,0.00,VWS V14.00,2013-02-26 07:15:00,
2013-02-26 01:20:00,21.6,18.3,30.00,ENE,72,0.0,1.0,87,0.00,,---,0.00,0.00,VWS V14.00,2013-02-26 07:20:00,
2013-02-26 01:25:00,21.6,18.3,30.00,East,79,0.0,0.0,87,0.00,,---,0.00,0.00,VWS V14.00,2013-02-26 07:25:00,
2013-02-26 01:30:00,21.6,18.3,30.00,East,79,1.0,1.0,87,0.00,,---,0.00,0.00,VWS V14.00,2013-02-26 07:30:00,
2013-02-26 01:35:00,21.4,18.1,30.00,ENE,61,0.0,1.0,87,0.00,,---,0.00,0.00,VWS V14.00,2013-02-26 07:35:00,
2013-02-26 01:40:00,21.3,18.0,30.00,ENE,73,0.0,1.0,87,0.00,,---,0.00,0.00,VWS V14.00,2013-02-26 07:40:00,
2013-02-26 01:45:00,21.1,17.8,30.00,ENE,72,1.0,1.0,87,0.00,,---,0.00,0.00,VWS V14.00,2013-02-26 07:45:00,
2013-02-26 01:50:00,20.8,17.5,30.00,NE,55,1.0,1.0,87,0.00,,---,0.00,0.00,VWS V14.00,2013-02-26 07:50:00,
2013-02-26 01:55:00,20.6,17.4,30.00,North,0,1.0,1.0,87,0.00,,---,0.00,0.00,VWS V14.00,2013-02-26 07:55:00,
2013-02-26 02:00:00,20.5,17.2,29.99,North,0,1.0,1.0,87,0.00,,---,0.00,0.00,VWS V14.00,2013-02-26 08:00:00,
2013-02-26 02:05:00,20.5,17.2,29.99,NE,55,1.0,1.0,87,0.00,,---,0.00,0.00,VWS V14.00,2013-02-26 08:05:00,
2013-02-26 02:10:00,20.2,17.0,29.99,NE,54,1.0,1.0,87,0.00,,---,0.00,0.00,VWS V14.00,2013-02-26 08:10:00,
2013-02-26 02:15:00,19.9,16.7,29.98,NE,41,2.0,2.0,87,0.00,,---,0.00,0.00,VWS V14.00,2013-02-26 08:15:00,
2013-02-26 02:20:00,19.7,16.5,29.98,NE,51,1.0,1.0,87,0.00,,---,0.00,0.00,VWS V14.00,2013-02-26 08:20:00,
2013-02-26 02:25:00,19.7,16.5,29.98,NNE,32,1.0,1.0,87,0.00,,---,0.00,0.00,VWS V14.00,2013-02-26 08:25:00,
2013-02-26 02:30:00,19.2,16.0,29.98,NNE,23,1.0,1.0,87,0.00,,---,0.00,0.00,VWS V14.00,2013-02-26 08:30:00,
2013-02-26 02:35:00,18.9,15.7,29.98,NE,41,2.0,2.0,87,0.00,,---,0.00,0.00,VWS V14.00,2013-02-26 08:35:00,
2013-02-26 02:40:00,18.9,15.7,29.98,NE,47,1.0,2.0,87,0.00,,---,0.00,0.00,VWS V14.00,2013-02-26 08:40:00,
2013-02-26 02:45:00,18.3,15.1,29.98,NNE,32,1.0,1.0,87,0.00,,---,0.00,0.00,VWS V14.00,2013-02-26 08:45:00,
2013-02-26 02:50:00,18.3,15.1,29.98,NE,56,0.0,0.0,87,0.00,,---,0.00,0.00,VWS V14.00,2013-02-26 08:50:00,
2013-02-26 02:55:00,18.1,14.9,29.98,ENE,58,2.0,2.0,87,0.00,,---,0.00,0.00,VWS V14.00,2013-02-26 08:55:00,
2013-02-26 03:00:00,18.0,14.8,29.98,NE,55,0.0,0.0,87,0.00,,---,0.00,0.00,VWS V14.00,2013-02-26 09:00:00,
2013-02-26 03:05:00,18.0,14.8,29.98,NE,55,1.0,1.0,87,0.00,,---,0.00,0.00,VWS V14.00,2013-02-26 09:05:00,
2013-02-26 03:10:00,18.0,14.8,29.98,NE,45,1.0,1.0,87,0.00,,---,0.00,0.00,VWS V14.00,2013-02-26 09:10:00,
2013-02-26 03:15:00,17.5,14.3,29.98,NE,45,1.0,1.0,87,0.00,,---,0.00,0.00,VWS V14.00,2013-02-26 09:15:00,
2013-02-26 03:20:00,17.3,14.1,29.98,NE,48,1.0,1.0,87,0.00,,---,0.00,0.00,VWS V14.00,2013-02-26 09:20:00,
2013-02-26 03:25:00,17.5,14.3,29.98,NE,41,0.0,2.0,87,0.00,,---,0.00,0.00,VWS V14.00,2013-02-26 09:25:00,
2013-02-26 03:30:00,17.3,14.1,29.97,NE,37,2.0,2.0,87,0.00,,---,0.00,0.00,VWS V14.00,2013-02-26 09:30:00,
2013-02-26 03:35:00,17.3,14.1,29.97,NE,49,1.0,1.0,87,0.00,,---,0.00,0.00,VWS V14.00,2013-02-26 09:35:00,
2013-02-26 03:40:00,17.3,14.1,29.97,NNE,23,1.0,1.0,87,0.00,,---,0.00,0.00,VWS V14.00,2013-02-26 09:40:00,
2013-02-26 03:45:00,17.3,14.1,29.97,NE,55,2.0,2.0,87,0.00,,---,0.00,0.00,VWS V14.00,2013-02-26 09:45:00,
2013-02-26 03:50:00,17.3,14.1,29.97,NE,55,1.0,1.0,87,0.00,,---,0.00,0.00,VWS V14.00,2013-02-26 09:50:00,
2013-02-26 03:55:00,17.2,14.0,29.97,NNE,31,1.0,1.0,87,0.00,,---,0.00,0.00,VWS V14.00,2013-02-26 09:55:00,
2013-02-26 04:00:00,17.0,13.8,29.97,NNE,20,1.0,1.0,87,0.00,,---,0.00,0.00,VWS V14.00,2013-02-26 10:00:00,
2013-02-26 04:05:00,16.9,13.7,29.97,NE,41,2.0,2.0,87,0.00,,---,0.00,0.00,VWS V14.00,2013-02-26 10:05:00,
2013-02-26 04:10:00,16.9,13.7,29.97,NNE,13,1.0,1.0,87,0.00,,---,0.00,0.00,VWS V14.00,2013-02-26 10:10:00,
2013-02-26 04:15:00,16.9,13.7,29.97,NNE,27,0.0,1.0,87,0.00,,---,0.00,0.00,VWS V14.00,2013-02-26 10:15:00,
2013-02-26 04:20:00,16.7,13.5,29.97,North,1,1.0,1.0,87,0.00,,---,0.00,0.00,VWS V14.00,2013-02-26 10:20:00,
2013-02-26 04:25:00,16.7,13.5,29.97,NNE,25,1.0,1.0,87,0.00,,---,0.00,0.00,VWS V14.00,2013-02-26 10:25:00,
2013-02-26 04:30:00,16.5,13.3,29.97,NNE,13,2.0,2.0,87,0.00,,---,0.00,0.00,VWS V14.00,2013-02-26 10:30:00,
2013-02-26 04:35:00,16.4,13.2,29.97,North,3,1.0,1.0,87,0.00,,---,0.00,0.00,VWS V14.00,2013-02-26 10:35:00,
2013-02-26 04:40:00,16.4,13.2,29.97,North,359,1.0,1.0,87,0.00,,---,0.00,0.00,VWS V14.00,2013-02-26 10:40:00,
2013-02-26 04:45:00,16.4,13.2,29.96,North,359,1.0,1.0,87,0.00,,---,0.00,0.00,VWS V14.00,2013-02-26 10:45:00,
2013-02-26 04:50:00,16.4,13.2,29.96,North,10,1.0,3.0,87,0.00,,---,0.00,0.00,VWS V14.00,2013-02-26 10:50:00,
2013-02-26 04:55:00,16.4,13.2,29.96,North,1,2.0,2.0,87,0.00,,---,0.00,0.00,VWS V14.00,2013-02-26 10:55:00,
2013-02-26 05:00:00,16.4,13.2,29.96,North,0,0.0,0.0,87,0.00,,---,0.00,0.00,VWS V14.00,2013-02-26 11:00:00,
2013-02-26 05:05:00,16.4,13.2,29.96,North,8,2.0,2.0,87,0.00,,---,0.00,0.00,VWS V14.00,2013-02-26 11:05:00,
2013-02-26 05:10:00,16.4,13.2,29.96,NE,38,0.0,0.0,87,0.00,,---,0.00,0.00,VWS V14.00,2013-02-26 11:10:00,
2013-02-26 05:15:00,16.5,13.3,29.95,NNE,18,0.0,1.0,87,0.00,,---,0.00,0.00,VWS V14.00,2013-02-26 11:15:00,
2013-02-26 05:20:00,16.5,13.3,29.95,North,7,1.0,1.0,87,0.00,,---,0.00,0.00,VWS V14.00,2013-02-26 11:20:00,
2013-02-26 05:25:00,16.4,13.2,29.95,North,352,1.0,1.0,87,0.00,,---,0.00,0.00,VWS V14.00,2013-02-26 11:25:00,
2013-02-26 05:30:00,16.4,13.2,29.96,ENE,65,1.0,1.0,87,0.00,,---,0.00,0.00,VWS V14.00,2013-02-26 11:30:00,
2013-02-26 05:35:00,16.4,13.2,29.96,NNW,340,1.0,1.0,87,0.00,,---,0.00,0.00,VWS V14.00,2013-02-26 11:35:00,
2013-02-26 05:40:00,16.4,13.2,29.96,NE,34,0.0,0.0,87,0.00,,---,0.00,0.00,VWS V14.00,2013-02-26 11:40:00,
2013-02-26 05:45:00,16.2,12.8,29.96,North,8,1.0,1.0,86,0.00,,---,0.00,0.00,VWS V14.00,2013-02-26 11:45:00,
2013-02-26 05:50:00,16.1,12.7,29.96,NNE,17,0.0,1.0,86,0.00,,---,0.00,0.00,VWS V14.00,2013-02-26 11:50:00,
2013-02-26 05:55:00,16.1,12.7,29.96,NNE,21,2.0,2.0,86,0.00,,---,0.00,0.00,VWS V14.00,2013-02-26 11:55:00,
2013-02-26 06:00:00,15.9,12.5,29.95,NE,42,0.0,0.0,86,0.00,,---,0.00,0.00,VWS V14.00,2013-02-26 12:00:00,
2013-02-26 06:05:00,15.9,12.5,29.95,NNE,31,1.0,1.0,86,0.00,,---,0.00,0.00,VWS V14.00,2013-02-26 12:05:00,
2013-02-26 06:10:00,15.7,12.3,29.95,NNW,346,3.0,3.0,86,0.00,,---,0.00,0.00,VWS V14.00,2013-02-26 12:10:00,
2013-02-26 06:15:00,15.7,12.3,29.96,North,359,1.0,2.0,86,0.00,,---,0.00,0.00,VWS V14.00,2013-02-26 12:15:00,
2013-02-26 06:20:00,15.7,12.3,29.96,North,0,0.0,0.0,86,0.00,,---,0.00,0.00,VWS V14.00,2013-02-26 12:20:00,
2013-02-26 06:25:00,15.9,12.5,29.96,NE,51,1.0,1.0,86,0.00,,---,0.00,0.00,VWS V14.00,2013-02-26 12:25:00,
2013-02-26 06:30:00,15.9,12.5,29.96,East,88,1.0,1.0,86,0.00,,---,0.00,0.00,VWS V14.00,2013-02-26 12:30:00,
2013-02-26 06:35:00,15.7,12.3,29.96,North,359,2.0,2.0,86,0.00,,---,0.00,0.00,VWS V14.00,2013-02-26 12:35:00,
2013-02-26 06:40:00,15.7,12.3,29.96,North,359,0.0,0.0,86,0.00,,---,0.00,0.00,VWS V14.00,2013-02-26 12:40:00,
2013-02-26 06:45:00,15.7,12.3,29.96,North,0,0.0,0.0,86,0.00,,---,0.00,0.00,VWS V14.00,2013-02-26 12:45:00,
2013-02-26 06:50:00,15.9,12.5,29.96,North,0,0.0,0.0,86,0.00,,---,0.00,0.00,VWS V14.00,2013-02-26 12:50:00,
2013-02-26 06:55:00,15.9,12.5,29.96,North,0,1.0,1.0,86,0.00,,---,0.00,0.00,VWS V14.00,2013-02-26 12:55:00,
2013-02-26 07:00:00,15.7,12.3,29.95,North,0,1.0,1.0,86,0.00,,---,0.00,0.00,VWS V14.00,2013-02-26 13:00:00,
2013-02-26 07:05:00,15.6,12.2,29.95,North,359,2.0,2.0,86,0.00,,---,0.00,0.00,VWS V14.00,2013-02-26 13:05:00,
2013-02-26 07:10:00,15.6,12.2,29.95,NNE,13,0.0,0.0,86,0.00,,---,0.00,0.00,VWS V14.00,2013-02-26 13:10:00,
2013-02-26 07:15:00,15.6,12.2,29.96,North,3,1.0,1.0,86,0.00,,---,0.00,0.00,VWS V14.00,2013-02-26 13:15:00,
2013-02-26 07:20:00,15.7,12.3,29.96,NNE,23,1.0,1.0,86,0.00,,---,0.00,23.00,VWS V14.00,2013-02-26 13:20:00,
2013-02-26 07:25:00,15.9,12.5,29.96,NNE,13,1.0,1.0,86,0.00,,---,0.00,23.00,VWS V14.00,2013-02-26 13:25:00,
2013-02-26 07:30:00,16.1,12.7,29.96,NNE,20,2.0,2.0,86,0.00,,---,0.00,28.00,VWS V14.00,2013-02-26 13:30:00,
2013-02-26 07:35:00,16.1,12.9,29.96,North,10,1.0,2.0,87,0.00,,---,0.00,28.00,VWS V14.00,2013-02-26 13:35:00,
2013-02-26 07:40:00,16.4,13.2,29.96,NE,56,3.0,3.0,87,0.00,,---,0.00,53.00,VWS V14.00,2013-02-26 13:40:00,
2013-02-26 07:45:00,16.4,13.2,29.95,NE,38,1.0,1.0,87,0.00,,---,0.00,53.00,VWS V14.00,2013-02-26 13:45:00,
2013-02-26 07:50:00,16.9,13.7,29.95,NNE,18,1.0,1.0,87,0.00,,---,0.00,74.00,VWS V14.00,2013-02-26 13:50:00,
2013-02-26 07:55:00,16.9,13.7,29.95,East,89,1.0,1.0,87,0.00,,---,0.00,74.00,VWS V14.00,2013-02-26 13:55:00,
2013-02-26 08:00:00,17.7,14.5,29.95,East,79,0.0,1.0,87,0.00,,---,0.00,116.00,VWS V14.00,2013-02-26 14:00:00,
2013-02-26 08:05:00,18.0,14.8,29.95,NE,41,1.0,2.0,87,0.00,,---,0.00,121.00,VWS V14.00,2013-02-26 14:05:00,
2013-02-26 08:10:00,18.3,15.1,29.95,NNE,28,2.0,3.0,87,0.00,,---,0.00,135.00,VWS V14.00,2013-02-26 14:10:00,
2013-02-26 08:15:00,18.4,15.2,29.96,NE,34,1.0,1.0,87,0.00,,---,0.00,116.00,VWS V14.00,2013-02-26 14:15:00,
2013-02-26 08:20:00,18.6,15.4,29.96,North,8,2.0,4.0,87,0.00,,---,0.00,116.00,VWS V14.00,2013-02-26 14:20:00,
2013-02-26 08:25:00,18.8,15.6,29.96,NNE,18,0.0,2.0,87,0.00,,---,0.00,144.00,VWS V14.00,2013-02-26 14:25:00,
2013-02-26 08:30:00,19.1,15.9,29.96,NNE,20,4.0,4.0,87,0.00,,---,0.00,130.00,VWS V14.00,2013-02-26 14:30:00,
2013-02-26 08:35:00,19.2,16.0,29.96,NE,34,2.0,3.0,87,0.00,,---,0.00,130.00,VWS V14.00,2013-02-26 14:35:00,
2013-02-26 08:40:00,19.2,16.0,29.96,North,10,0.0,1.0,87,0.00,,---,0.00,127.00,VWS V14.00,2013-02-26 14:40:00,
2013-02-26 08:44:00,19.4,16.2,29.96,NE,47,3.0,3.0,87,0.00,,---,0.00,121.00,VWS V14.00,2013-02-26 14:44:00,
2013-02-26 08:49:00,19.7,16.5,29.96,NE,49,1.0,6.0,87,0.00,,---,0.00,118.00,VWS V14.00,2013-02-26 14:49:00,
2013-02-26 08:54:00,19.7,16.5,29.96,NNE,25,3.0,3.0,87,0.00,,---,0.00,118.00,VWS V14.00,2013-02-26 14:54:00,
2013-02-26 08:59:00,20.0,16.8,29.96,North,1,1.0,1.0,87,0.00,,---,0.00,128.00,VWS V14.00,2013-02-26 14:59:00,
2013-02-26 09:04:00,20.5,17.2,29.96,NNE,23,2.0,2.0,87,0.00,,---,0.00,128.00,VWS V14.00,2013-02-26 15:04:00,
2013-02-26 09:09:00,20.5,17.2,29.96,ENE,58,6.0,6.0,87,0.00,,---,0.00,128.00,VWS V14.00,2013-02-26 15:09:00,
2013-02-26 09:14:00,20.5,17.0,29.96,NNE,18,5.0,5.0,86,0.00,,---,0.00,128.00,VWS V14.00,2013-02-26 15:14:00,
2013-02-26 09:19:00,20.5,17.0,29.96,North,4,3.0,3.0,86,0.00,,---,0.00,128.00,VWS V14.00,2013-02-26 15:19:00,
2013-02-26 09:24:00,20.5,17.0,29.96,North,350,5.0,5.0,86,0.00,,---,0.00,128.00,VWS V14.00,2013-02-26 15:24:00,
2013-02-26 09:29:00,20.5,17.0,29.96,NE,47,2.0,2.0,86,0.00,,---,0.00,128.00,VWS V14.00,2013-02-26 15:29:00,
2013-02-26 09:34:00,22.4,18.9,29.96,North,0,2.0,2.0,86,0.00,,---,0.00,128.00,VWS V14.00,2013-02-26 15:34:00,
2013-02-26 09:39:00,23.0,19.5,29.96,North,8,2.0,2.0,86,0.00,,---,0.00,128.00,VWS V14.00,2013-02-26 15:39:00,
2013-02-26 09:44:00,23.0,19.5,29.95,North,0,2.0,2.0,86,0.00,,---,0.00,128.00,VWS V14.00,2013-02-26 15:44:00,
2013-02-26 09:49:00,23.8,20.2,29.95,NNE,17,1.0,1.0,86,0.00,,---,0.00,165.00,VWS V14.00,2013-02-26 15:49:00,
2013-02-26 09:54:00,24.1,20.5,29.95,NNE,17,1.0,2.0,86,0.00,,---,0.00,143.00,VWS V14.00,2013-02-26 15:54:00,
2013-02-26 09:59:00,24.7,20.6,29.95,North,4,2.0,2.0,84,0.00,,---,0.00,143.00,VWS V14.00,2013-02-26 15:59:00,
2013-02-26 10:04:00,24.7,20.6,29.95,North,359,5.0,5.0,84,0.00,,---,0.00,143.00,VWS V14.00,2013-02-26 16:04:00,
2013-02-26 10:09:00,24.7,20.3,29.95,NE,34,2.0,2.0,83,0.00,,---,0.00,143.00,VWS V14.00,2013-02-26 16:09:00,
2013-02-26 10:14:00,24.7,20.3,29.95,North,0,5.0,5.0,83,0.00,,---,0.00,148.00,VWS V14.00,2013-02-26 16:14:00,
2013-02-26 10:19:00,25.8,21.4,29.95,NNW,336,5.0,5.0,83,0.00,,---,0.00,148.00,VWS V14.00,2013-02-26 16:19:00,
2013-02-26 10:24:00,25.8,21.4,29.95,NE,54,3.0,3.0,83,0.00,,---,0.00,148.00,VWS V14.00,2013-02-26 16:24:00,
2013-02-26 10:29:00,26.3,21.9,29.94,North,3,4.0,4.0,83,0.00,,---,0.00,162.00,VWS V14.00,2013-02-26 16:29:00,
2013-02-26 10:34:00,26.3,21.9,29.94,North,3,2.0,2.0,83,0.00,,---,0.00,162.00,VWS V14.00,2013-02-26 16:34:00,
2013-02-26 10:39:00,26.3,21.9,29.94,NE,35,1.0,1.0,83,0.00,,---,0.00,146.00,VWS V14.00,2013-02-26 16:39:00,
2013-02-26 10:44:00,26.6,22.1,29.93,NE,49,3.0,3.0,83,0.00,,---,0.00,146.00,VWS V14.00,2013-02-26 16:44:00,
2013-02-26 10:49:00,26.7,22.2,29.93,NNE,28,2.0,2.0,83,0.00,,---,0.00,146.00,VWS V14.00,2013-02-26 16:49:00,
2013-02-26 10:54:00,26.9,22.4,29.93,NNE,18,0.0,0.0,83,0.00,,---,0.00,188.00,VWS V14.00,2013-02-26 16:54:00,
2013-02-26 10:59:00,27.3,22.8,29.93,NNE,13,6.0,6.0,83,0.00,,---,0.00,188.00,VWS V14.00,2013-02-26 16:59:00,
2013-02-26 11:04:00,27.3,22.8,29.93,NE,44,2.0,2.0,83,0.00,,---,0.00,188.00,VWS V14.00,2013-02-26 17:04:00,
2013-02-26 11:09:00,27.5,23.0,29.93,NNW,340,1.0,1.0,83,0.00,,---,0.00,169.00,VWS V14.00,2013-02-26 17:09:00,
2013-02-26 11:14:00,27.5,23.0,29.94,NNE,28,3.0,3.0,83,0.00,,---,0.00,169.00,VWS V14.00,2013-02-26 17:14:00,
2013-02-26 11:19:00,27.5,23.0,29.94,North,0,3.0,3.0,83,0.00,,---,0.00,169.00,VWS V14.00,2013-02-26 17:19:00,
2013-02-26 11:24:00,28.2,21.6,29.94,North,0,5.0,5.0,76,0.00,,---,0.00,169.00,VWS V14.00,2013-02-26 17:24:00,
2013-02-26 11:29:00,28.5,21.9,29.94,NNE,24,2.0,2.0,76,0.00,,---,0.00,167.00,VWS V14.00,2013-02-26 17:29:00,
2013-02-26 11:34:00,28.8,22.2,29.94,NNE,16,3.0,3.0,76,0.00,,---,0.00,169.00,VWS V14.00,2013-02-26 17:34:00,
2013-02-26 11:39:00,29.1,22.5,29.94,NE,42,3.0,3.0,76,0.00,,---,0.00,165.00,VWS V14.00,2013-02-26 17:39:00,
2013-02-26 11:44:00,29.4,22.5,29.94,NNE,32,3.0,4.0,75,0.00,,---,0.00,172.00,VWS V14.00,2013-02-26 17:44:00,
2013-02-26 11:49:00,29.5,22.6,29.94,NNE,32,5.0,6.0,75,0.00,,---,0.00,195.00,VWS V14.00,2013-02-26 17:49:00,
2013-02-26 11:54:00,29.7,22.4,29.94,North,8,5.0,6.0,74,0.00,,---,0.00,209.00,VWS V14.00,2013-02-26 17:54:00,
2013-02-26 11:59:00,30.0,23.0,29.92,North,3,1.0,2.0,75,0.00,,---,0.00,202.00,VWS V14.00,2013-02-26 17:59:00,
2013-02-26 12:04:00,30.1,22.8,29.92,NNE,13,2.0,2.0,74,0.00,,---,0.00,213.00,VWS V14.00,2013-02-26 18:04:00,
2013-02-26 12:09:00,30.4,22.8,29.92,NE,48,1.0,2.0,73,0.00,,---,0.00,236.00,VWS V14.00,2013-02-26 18:09:00,
2013-02-26 12:14:00,30.6,23.0,29.92,North,11,2.0,2.0,73,0.00,,---,0.00,229.00,VWS V14.00,2013-02-26 18:14:00,
2013-02-26 12:19:00,30.9,23.3,29.92,NE,37,5.0,5.0,73,0.00,,---,0.00,229.00,VWS V14.00,2013-02-26 18:19:00,
2013-02-26 12:24:00,30.9,23.3,29.92,NNW,347,1.0,1.0,73,0.00,,---,0.00,229.00,VWS V14.00,2013-02-26 18:24:00,
2013-02-26 12:29:00,31.8,23.5,29.91,North,357,6.0,6.0,71,0.00,,---,0.00,229.00,VWS V14.00,2013-02-26 18:29:00,
2013-02-26 12:34:00,31.8,23.5,29.91,NNE,23,2.0,2.0,71,0.00,,---,0.00,229.00,VWS V14.00,2013-02-26 18:34:00,
2013-02-26 12:39:00,32.2,23.9,29.91,NE,49,5.0,5.0,71,0.00,,---,0.00,229.00,VWS V14.00,2013-02-26 18:39:00,
2013-02-26 12:44:00,32.9,24.5,29.90,NNE,20,6.0,7.0,71,0.00,,---,0.00,229.00,VWS V14.00,2013-02-26 18:44:00,
2013-02-26 12:49:00,33.1,24.0,29.90,North,357,5.0,5.0,69,0.00,,---,0.00,229.00,VWS V14.00,2013-02-26 18:49:00,
2013-02-26 12:54:00,33.1,24.0,29.90,ENE,59,5.0,6.0,69,0.00,,---,0.00,229.00,VWS V14.00,2013-02-26 18:54:00,
2013-02-26 12:59:00,33.4,24.3,29.89,North,11,2.0,2.0,69,0.00,,---,0.00,229.00,VWS V14.00,2013-02-26 18:59:00,
2013-02-26 13:04:00,34.1,25.0,29.89,NE,56,3.0,3.0,69,0.00,,---,0.00,195.00,VWS V14.00,2013-02-26 19:04:00,
2013-02-26 13:09:00,34.4,25.3,29.89,NNE,17,6.0,6.0,69,0.00,,---,0.00,195.00,VWS V14.00,2013-02-26 19:09:00,
2013-02-26 13:14:00,34.4,25.3,29.89,NNE,32,2.0,2.0,69,0.00,,---,0.00,234.00,VWS V14.00,2013-02-26 19:14:00,
2013-02-26 13:19:00,34.6,25.5,29.89,East,82,2.0,2.0,69,0.00,,---,0.00,234.00,VWS V14.00,2013-02-26 19:19:00,
2013-02-26 13:24:00,34.6,25.5,29.89,NNW,339,6.0,6.0,69,0.00,,---,0.00,234.00,VWS V14.00,2013-02-26 19:24:00,
2013-02-26 13:29:00,34.6,25.5,29.89,North,0,8.0,8.0,69,0.00,,---,0.00,234.00,VWS V14.00,2013-02-26 19:29:00,
2013-02-26 13:34:00,34.9,25.8,29.89,NNE,30,3.0,3.0,69,0.00,,---,0.00,234.00,VWS V14.00,2013-02-26 19:34:00,
2013-02-26 13:39:00,35.0,25.9,29.89,NNW,343,7.0,7.0,69,0.00,,---,0.00,234.00,VWS V14.00,2013-02-26 19:39:00,
2013-02-26 13:44:00,34.9,25.8,29.88,NNE,21,5.0,5.0,69,0.00,,---,0.00,234.00,VWS V14.00,2013-02-26 19:44:00,
2013-02-26 13:49:00,34.7,25.6,29.88,NNE,17,1.0,1.0,69,0.00,,---,0.00,234.00,VWS V14.00,2013-02-26 19:49:00,
2013-02-26 13:54:00,34.9,24.3,29.88,NNW,335,8.0,8.0,65,0.00,,---,0.00,234.00,VWS V14.00,2013-02-26 19:54:00,
2013-02-26 13:59:00,34.9,24.3,29.88,North,3,8.0,8.0,65,0.00,,---,0.00,234.00,VWS V14.00,2013-02-26 19:59:00,
2013-02-26 14:04:00,34.7,24.1,29.88,North,8,7.0,7.0,65,0.00,,---,0.00,234.00,VWS V14.00,2013-02-26 20:04:00,
2013-02-26 14:09:00,34.7,24.1,29.88,North,0,5.0,6.0,65,0.00,,---,0.00,234.00,VWS V14.00,2013-02-26 20:09:00,
2013-02-26 14:14:00,34.7,24.5,29.87,North,7,3.0,7.0,66,0.00,,---,0.00,234.00,VWS V14.00,2013-02-26 20:14:00,
2013-02-26 14:19:00,34.6,24.4,29.87,NNW,330,2.0,2.0,66,0.00,,---,0.00,234.00,VWS V14.00,2013-02-26 20:19:00,
2013-02-26 14:24:00,34.9,24.7,29.87,North,6,7.0,7.0,66,0.00,,---,0.00,234.00,VWS V14.00,2013-02-26 20:24:00,
2013-02-26 14:29:00,34.9,24.7,29.87,North,10,8.0,8.0,66,0.00,,---,0.00,234.00,VWS V14.00,2013-02-26 20:29:00,
2013-02-26 14:34:00,34.9,24.7,29.87,North,0,3.0,3.0,66,0.00,,---,0.00,222.00,VWS V14.00,2013-02-26 20:34:00,
2013-02-26 14:39:00,34.9,24.7,29.87,NW,304,6.0,6.0,66,0.00,,---,0.00,222.00,VWS V14.00,2013-02-26 20:39:00,
2013-02-26 14:44:00,34.9,24.3,29.86,North,353,7.0,7.0,65,0.00,,---,0.00,248.00,VWS V14.00,2013-02-26 20:44:00,
2013-02-26 14:49:00,34.9,24.7,29.86,North,354,6.0,6.0,66,0.00,,---,0.00,248.00,VWS V14.00,2013-02-26 20:49:00,
2013-02-26 14:54:00,34.7,24.5,29.86,North,1,7.0,7.0,66,0.00,,---,0.00,202.00,VWS V14.00,2013-02-26 20:54:00,
2013-02-26 14:59:00,34.7,24.5,29.86,North,6,2.0,2.0,66,0.00,,---,0.00,202.00,VWS V14.00,2013-02-26 20:59:00,
2013-02-26 15:04:00,34.9,24.7,29.86,North,354,2.0,2.0,66,0.00,,---,0.00,167.00,VWS V14.00,2013-02-26 21:04:00,
2013-02-26 15:09:00,34.9,24.7,29.86,NE,37,2.0,2.0,66,0.00,,---,0.00,167.00,VWS V14.00,2013-02-26 21:09:00,
2013-02-26 15:14:00,35.0,24.4,29.86,North,356,13.0,13.0,65,0.00,,---,0.00,134.00,VWS V14.00,2013-02-26 21:14:00,
2013-02-26 15:19:00,34.7,24.1,29.86,NNE,25,9.0,10.0,65,0.00,,---,0.00,146.00,VWS V14.00,2013-02-26 21:19:00,
2013-02-26 15:24:00,34.6,24.4,29.86,NNW,330,4.0,4.0,66,0.00,,---,0.00,146.00,VWS V14.00,2013-02-26 21:24:00,
2013-02-26 15:29:00,34.6,24.4,29.86,North,6,14.0,14.0,66,0.00,,---,0.00,146.00,VWS V14.00,2013-02-26 21:29:00,
2013-02-26 15:34:00,34.7,24.5,29.86,WSW,256,6.0,6.0,66,0.00,,---,0.00,146.00,VWS V14.00,2013-02-26 21:34:00,
2013-02-26 15:39:00,34.7,24.5,29.86,North,1,7.0,7.0,66,0.00,,---,0.00,146.00,VWS V14.00,2013-02-26 21:39:00,
2013-02-26 15:44:00,34.9,24.7,29.86,NNW,344,5.0,7.0,66,0.00,,---,0.00,146.00,VWS V14.00,2013-02-26 21:44:00,
2013-02-26 15:49:00,35.2,25.0,29.85,North,8,8.0,8.0,66,0.00,,---,0.00,146.00,VWS V14.00,2013-02-26 21:49:00,
2013-02-26 15:54:00,35.2,24.6,29.85,North,0,3.0,3.0,65,0.00,,---,0.00,146.00,VWS V14.00,2013-02-26 21:54:00,
2013-02-26 15:59:00,35.5,24.9,29.85,North,11,6.0,6.0,65,0.00,,---,0.00,146.00,VWS V14.00,2013-02-26 21:59:00,
2013-02-26 16:04:00,35.5,24.9,29.85,NNE,25,3.0,3.0,65,0.00,,---,0.00,146.00,VWS V14.00,2013-02-26 22:04:00,
2013-02-26 16:09:00,35.5,24.9,29.85,North,10,6.0,6.0,65,0.00,,---,0.00,146.00,VWS V14.00,2013-02-26 22:09:00,
2013-02-26 16:14:00,35.5,24.9,29.85,NW,326,7.0,7.0,65,0.00,,---,0.00,146.00,VWS V14.00,2013-02-26 22:14:00,
2013-02-26 16:19:00,35.6,25.0,29.85,NNW,333,8.0,8.0,65,0.00,,---,0.00,146.00,VWS V14.00,2013-02-26 22:19:00,
2013-02-26 16:24:00,35.5,24.9,29.85,NNE,17,2.0,3.0,65,0.00,,---,0.00,146.00,VWS V14.00,2013-02-26 22:24:00,
2013-02-26 16:29:00,35.5,24.5,29.85,NNW,328,2.0,3.0,64,0.00,,---,0.00,146.00,VWS V14.00,2013-02-26 22:29:00,
2013-02-26 16:34:00,35.6,24.6,29.84,NNW,344,8.0,8.0,64,0.00,,---,0.00,146.00,VWS V14.00,2013-02-26 22:34:00,
2013-02-26 16:39:00,35.6,24.6,29.84,NNW,335,2.0,3.0,64,0.00,,---,0.00,146.00,VWS V14.00,2013-02-26 22:39:00,
2013-02-26 16:44:00,35.8,24.8,29.84,NW,319,3.0,8.0,64,0.00,,---,0.00,146.00,VWS V14.00,2013-02-26 22:44:00,
2013-02-26 16:49:00,35.8,24.8,29.84,North,354,3.0,3.0,64,0.00,,---,0.00,146.00,VWS V14.00,2013-02-26 22:49:00,
2013-02-26 16:54:00,35.9,24.9,29.84,North,350,3.0,3.0,64,0.00,,---,0.00,146.00,VWS V14.00,2013-02-26 22:54:00,
2013-02-26 16:59:00,35.9,24.9,29.84,NW,308,1.0,3.0,64,0.00,,---,0.00,146.00,VWS V14.00,2013-02-26 22:59:00,
2013-02-26 17:04:00,36.0,25.4,29.84,NNW,333,3.0,3.0,65,0.00,,---,0.00,146.00,VWS V14.00,2013-02-26 23:04:00,
2013-02-26 17:09:00,36.0,25.4,29.84,North,359,6.0,6.0,65,0.00,,---,0.00,146.00,VWS V14.00,2013-02-26 23:09:00,
2013-02-26 17:14:00,36.0,25.0,29.84,North,0,5.0,5.0,64,0.00,,---,0.00,146.00,VWS V14.00,2013-02-26 23:14:00,
2013-02-26 17:19:00,36.0,25.0,29.84,North,4,4.0,4.0,64,0.00,,---,0.00,146.00,VWS V14.00,2013-02-26 23:19:00,
2013-02-26 17:24:00,36.0,25.0,29.84,NNW,336,3.0,3.0,64,0.00,,---,0.00,146.00,VWS V14.00,2013-02-26 23:24:00,
2013-02-26 17:29:00,36.0,25.0,29.84,NW,305,8.0,8.0,64,0.00,,---,0.00,146.00,VWS V14.00,2013-02-26 23:29:00,
2013-02-26 17:34:00,35.9,24.9,29.84,North,0,4.0,7.0,64,0.00,,---,0.00,146.00,VWS V14.00,2013-02-26 23:34:00,
2013-02-26 17:39:00,35.9,24.5,29.84,NNW,336,2.0,4.0,63,0.00,,---,0.00,146.00,VWS V14.00,2013-02-26 23:39:00,
2013-02-26 17:44:00,35.9,24.5,29.84,NNW,337,2.0,2.0,63,0.00,,---,0.00,146.00,VWS V14.00,2013-02-26 23:44:00,
2013-02-26 17:49:00,35.9,24.5,29.84,NW,323,2.0,2.0,63,0.00,,---,0.00,146.00,VWS V14.00,2013-02-26 23:49:00,
2013-02-26 17:54:00,35.6,24.6,29.84,NNW,347,4.0,4.0,64,0.00,,---,0.00,146.00,VWS V14.00,2013-02-26 23:54:00,
2013-02-26 17:59:00,35.5,24.5,29.84,North,359,6.0,6.0,64,0.00,,---,0.00,0.00,VWS V14.00,2013-02-26 23:59:00,
2013-02-26 18:04:00,35.2,24.6,29.84,NNW,329,1.0,3.0,65,0.00,,---,0.00,0.00,VWS V14.00,2013-02-27 00:04:00,
2013-02-26 18:09:00,35.2,24.6,29.84,NNW,328,7.0,7.0,65,0.00,,---,0.00,0.00,VWS V14.00,2013-02-27 00:09:00,
2013-02-26 18:14:00,35.0,24.4,29.84,North,353,6.0,6.0,65,0.00,,---,0.00,0.00,VWS V14.00,2013-02-27 00:14:00,
2013-02-26 18:19:00,35.0,24.4,29.84,North,0,2.0,5.0,65,0.00,,---,0.00,0.00,VWS V14.00,2013-02-27 00:19:00,
2013-02-26 18:24:00,35.0,24.4,29.84,NNW,339,3.0,3.0,65,0.00,,---,0.00,0.00,VWS V14.00,2013-02-27 00:24:00,
2013-02-26 18:29:00,35.0,24.4,29.84,North,359,6.0,6.0,65,0.00,,---,0.00,0.00,VWS V14.00,2013-02-27 00:29:00,
2013-02-26 18:34:00,35.0,24.4,29.85,North,0,4.0,4.0,65,0.00,,---,0.00,0.00,VWS V14.00,2013-02-27 00:34:00,
2013-02-26 18:39:00,35.0,24.4,29.85,North,359,8.0,8.0,65,0.00,,---,0.00,0.00,VWS V14.00,2013-02-27 00:39:00,
2013-02-26 18:44:00,34.9,24.3,29.85,North,0,3.0,4.0,65,0.00,,---,0.00,0.00,VWS V14.00,2013-02-27 00:44:00,
2013-02-26 18:49:00,34.9,24.3,29.86,NNW,339,7.0,7.0,65,0.00,,---,0.00,0.00,VWS V14.00,2013-02-27 00:49:00,
2013-02-26 18:54:00,34.9,24.3,29.86,North,0,6.0,6.0,65,0.00,,---,0.00,0.00,VWS V14.00,2013-02-27 00:54:00,
2013-02-26 18:59:00,34.9,24.7,29.86,North,354,3.0,6.0,66,0.00,,---,0.00,0.00,VWS V14.00,2013-02-27 00:59:00,
2013-02-26 19:04:00,34.7,24.5,29.85,North,8,5.0,5.0,66,0.00,,---,0.00,0.00,VWS V14.00,2013-02-27 01:04:00,
2013-02-26 19:09:00,34.7,24.5,29.85,North,8,5.0,10.0,66,0.00,,---,0.00,0.00,VWS V14.00,2013-02-27 01:09:00,
2013-02-26 19:14:00,34.7,24.5,29.85,NNE,28,4.0,4.0,66,0.00,,---,0.00,0.00,VWS V14.00,2013-02-27 01:14:00,
2013-02-26 19:19:00,34.4,24.2,29.86,NNE,16,8.0,8.0,66,0.00,,---,0.00,0.00,VWS V14.00,2013-02-27 01:19:00,
2013-02-26 19:24:00,34.3,24.9,29.86,NNE,21,5.0,5.0,68,0.00,,---,0.00,0.00,VWS V14.00,2013-02-27 01:24:00,
2013-02-26 19:29:00,34.3,24.9,29.86,North,0,3.0,3.0,68,0.00,,---,0.00,0.00,VWS V14.00,2013-02-27 01:29:00,
2013-02-26 19:34:00,34.1,24.7,29.85,North,8,8.0,8.0,68,0.00,,---,0.00,0.00,VWS V14.00,2013-02-27 01:34:00,
2013-02-26 19:39:00,34.0,24.6,29.85,NNE,23,6.0,6.0,68,0.00,,---,0.00,0.00,VWS V14.00,2013-02-27 01:39:00,
2013-02-26 19:44:00,33.8,24.7,29.85,North,0,2.0,8.0,69,0.00,,---,0.00,0.00,VWS V14.00,2013-02-27 01:44:00,
2013-02-26 19:49:00,33.8,24.7,29.86,NNW,336,6.0,6.0,69,0.00,,---,0.00,0.00,VWS V14.00,2013-02-27 01:49:00,
2013-02-26 19:54:00,33.7,24.6,29.86,NNE,31,1.0,1.0,69,0.00,,---,0.00,0.00,VWS V14.00,2013-02-27 01:54:00,
2013-02-26 19:59:00,33.4,24.3,29.86,NE,48,3.0,3.0,69,0.00,,---,0.00,0.00,VWS V14.00,2013-02-27 01:59:00,
2013-02-26 20:04:00,33.2,24.1,29.86,North,359,3.0,3.0,69,0.00,,---,0.00,0.00,VWS V14.00,2013-02-27 02:04:00,
2013-02-26 20:09:00,33.2,24.1,29.86,NNE,14,3.0,3.0,69,0.00,,---,0.00,0.00,VWS V14.00,2013-02-27 02:09:00,
2013-02-26 20:14:00,33.1,24.0,29.86,NW,305,6.0,6.0,69,0.00,,---,0.00,0.00,VWS V14.00,2013-02-27 02:14:00,
2013-02-26 20:19:00,33.1,24.0,29.86,North,359,7.0,8.0,69,0.00,,---,0.00,0.00,VWS V14.00,2013-02-27 02:19:00,
2013-02-26 20:24:00,32.8,23.8,29.86,North,353,6.0,11.0,69,0.00,,---,0.00,0.00,VWS V14.00,2013-02-27 02:24:00,
2013-02-26 20:29:00,32.8,24.5,29.86,North,350,10.0,10.0,71,0.00,,---,0.00,0.00,VWS V14.00,2013-02-27 02:29:00,
2013-02-26 20:34:00,32.7,24.4,29.86,NNE,23,3.0,6.0,71,0.00,,---,0.00,0.00,VWS V14.00,2013-02-27 02:34:00,
2013-02-26 20:39:00,32.7,24.4,29.86,NE,42,7.0,7.0,71,0.00,,---,0.00,0.00,VWS V14.00,2013-02-27 02:39:00,
2013-02-26 20:44:00,32.5,24.2,29.86,North,0,10.0,10.0,71,0.00,,---,0.00,0.00,VWS V14.00,2013-02-27 02:44:00,
2013-02-26 20:49:00,32.5,24.2,29.85,NNE,20,11.0,11.0,71,0.00,,---,0.00,0.00,VWS V14.00,2013-02-27 02:49:00,
2013-02-26 20:54:00,32.2,23.9,29.85,North,8,3.0,3.0,71,0.00,,---,0.00,0.00,VWS V14.00,2013-02-27 02:54:00,
2013-02-26 20:59:00,32.2,23.9,29.85,NE,45,10.0,10.0,71,0.00,,---,0.00,0.00,VWS V14.00,2013-02-27 02:59:00,
2013-02-26 21:04:00,31.9,23.6,29.85,North,0,8.0,8.0,71,0.00,,---,0.00,0.00,VWS V14.00,2013-02-27 03:04:00,
2013-02-26 21:09:00,31.9,23.6,29.85,North,3,7.0,7.0,71,0.00,,---,0.00,0.00,VWS V14.00,2013-02-27 03:09:00,
2013-02-26 21:14:00,31.9,23.6,29.85,NNE,32,2.0,2.0,71,0.00,,---,0.00,0.00,VWS V14.00,2013-02-27 03:14:00,
2013-02-26 21:19:00,31.8,23.8,29.85,North,359,11.0,11.0,72,0.00,,---,0.00,0.00,VWS V14.00,2013-02-27 03:19:00,
2013-02-26 21:24:00,31.6,23.6,29.85,NNW,347,4.0,5.0,72,0.00,,---,0.00,0.00,VWS V14.00,2013-02-27 03:24:00,
2013-02-26 21:29:00,31.6,23.6,29.85,NE,37,5.0,6.0,72,0.00,,---,0.00,0.00,VWS V14.00,2013-02-27 03:29:00,
2013-02-26 21:34:00,31.3,23.3,29.84,NNW,339,10.0,10.0,72,0.00,,---,0.00,0.00,VWS V14.00,2013-02-27 03:34:00,
2013-02-26 21:39:00,31.2,23.2,29.84,NNE,28,5.0,9.0,72,0.00,,---,0.00,0.00,VWS V14.00,2013-02-27 03:39:00,
2013-02-26 21:44:00,31.2,23.2,29.84,North,3,9.0,9.0,72,0.00,,---,0.00,0.00,VWS V14.00,2013-02-27 03:44:00,
2013-02-26 21:49:00,31.2,23.2,29.84,North,359,4.0,8.0,72,0.00,,---,0.00,0.00,VWS V14.00,2013-02-27 03:49:00,
2013-02-26 21:54:00,31.2,23.2,29.84,NNW,329,2.0,5.0,72,0.00,,---,0.00,0.00,VWS V14.00,2013-02-27 03:54:00,
2013-02-26 21:59:00,31.2,23.2,29.84,NNE,25,5.0,5.0,72,0.00,,---,0.00,0.00,VWS V14.00,2013-02-27 03:59:00,
2013-02-26 22:04:00,31.2,23.2,29.84,North,356,7.0,7.0,72,0.00,,---,0.00,0.00,VWS V14.00,2013-02-27 04:04:00,
2013-02-26 22:09:00,30.7,22.8,29.84,NE,42,10.0,10.0,72,0.00,,---,0.00,0.00,VWS V14.00,2013-02-27 04:09:00,
2013-02-26 22:14:00,30.6,22.7,29.84,NNE,27,2.0,2.0,72,0.00,,---,0.00,0.00,VWS V14.00,2013-02-27 04:14:00,
2013-02-26 22:19:00,30.6,22.7,29.84,North,0,5.0,5.0,72,0.00,,---,0.00,0.00,VWS V14.00,2013-02-27 04:19:00,
2013-02-26 22:24:00,30.4,22.5,29.84,NNW,339,5.0,7.0,72,0.00,,---,0.00,0.00,VWS V14.00,2013-02-27 04:24:00,
2013-02-26 22:29:00,30.4,22.5,29.84,NNE,20,6.0,6.0,72,0.00,,---,0.00,0.00,VWS V14.00,2013-02-27 04:29:00,
2013-02-26 22:34:00,30.3,22.4,29.84,North,4,10.0,10.0,72,0.00,,---,0.00,0.00,VWS V14.00,2013-02-27 04:34:00,
2013-02-26 22:39:00,30.3,22.4,29.84,NNE,13,2.0,2.0,72,0.00,,---,0.00,0.00,VWS V14.00,2013-02-27 04:39:00,
2013-02-26 22:44:00,30.3,22.4,29.84,North,0,3.0,3.0,72,0.00,,---,0.00,0.00,VWS V14.00,2013-02-27 04:44:00,
2013-02-26 22:49:00,30.3,22.4,29.84,North,0,3.0,3.0,72,0.00,,---,0.00,0.00,VWS V14.00,2013-02-27 04:49:00,
2013-02-26 22:54:00,30.3,22.4,29.84,North,357,2.0,2.0,72,0.00,,---,0.00,0.00,VWS V14.00,2013-02-27 04:54:00,
2013-02-26 22:59:00,30.1,22.2,29.84,North,353,3.0,3.0,72,0.00,,---,0.00,0.00,VWS V14.00,2013-02-27 04:59:00,
2013-02-26 23:00:00,30.1,22.2,29.84,North,353,3.0,3.0,72,0.00,,---,0.00,0.00,VWS V14.00,2013-02-27 05:00:00,
2013-02-26 23:05:00,30.1,22.2,29.84,NNE,28,9.0,9.0,72,0.00,,---,0.00,0.00,VWS V14.00,2013-02-27 05:05:00,
2013-02-26 23:10:00,30.1,22.2,29.84,NE,44,2.0,2.0,72,0.00,,---,0.00,0.00,VWS V14.00,2013-02-27 05:10:00,
2013-02-26 23:15:00,30.0,22.1,29.84,North,359,2.0,3.0,72,0.00,,---,0.00,0.00,VWS V14.00,2013-02-27 05:15:00,
2013-02-26 23:20:00,30.0,22.1,29.84,North,356,6.0,6.0,72,0.00,,---,0.00,0.00,VWS V14.00,2013-02-27 05:20:00,
2013-02-26 23:25:00,30.0,22.4,29.84,NNW,344,8.0,8.0,73,0.00,,---,0.00,0.00,VWS V14.00,2013-02-27 05:25:00,
2013-02-26 23:30:00,29.8,22.2,29.83,North,0,5.0,5.0,73,0.00,,---,0.00,0.00,VWS V14.00,2013-02-27 05:30:00,
2013-02-26 23:35:00,29.8,22.2,29.83,North,11,3.0,3.0,73,0.00,,---,0.00,0.00,VWS V14.00,2013-02-27 05:35:00,
2013-02-26 23:40:00,29.7,22.1,29.83,North,0,7.0,7.0,73,0.00,,---,0.00,0.00,VWS V14.00,2013-02-27 05:40:00,
2013-02-26 23:45:00,29.7,22.1,29.83,North,0,11.0,12.0,73,0.00,,---,0.00,0.00,VWS V14.00,2013-02-27 05:45:00,
2013-02-26 23:50:00,29.7,22.1,29.83,North,0,7.0,7.0,73,0.00,,---,0.00,0.00,VWS V14.00,2013-02-27 05:50:00,
2013-02-26 23:55:00,29.7,22.1,29.83,North,0,6.0,6.0,73,0.00,,---,0.00,0.00,VWS V14.00,2013-02-27 05:55:00,